Location: Saint-Restitut
(44.3351°N, 4.7915°E)
Time: 13:22:50
(UTC+00:00)

USA 215 - Pass Details

Date: 03 February 2023
Orbit: 1100 x 1107 km, 123.0° (Epoch: 18 March)

Event Time Altitude Azimuth Distance (km) Brightness Sun altitude
Rises 18:13:52 0° 146° (SE) 3,909 5.9 -14.8°
Reaches altitude 10° 18:16:25 10° 151° (SSE) 2,953 5.3 -15.2°
Maximum altitude 18:22:45 52° 227° (SW) 1,340 4.0 -16.4°
Drops below altitude 10° 18:29:07 10° 303° (WNW) 2,962 6.3 -17.5°
Sets 18:31:42 0° 308° (NW) 3,923 6.9 -17.9°
